Flag for Switzerland Weather past 2 weeks in Davos, Graubünden, Switzerland

Now
45 °F

Quite cool.


Feels Like: 42 °F
Forecast: 15 / 37 °F
Wind: 5 mph from North

Location: Chur-Ems

Current Time: Feb 28, 2015 at 3:56:02 PM

Latest Report: Feb 28, 2015 at 3:00 PM


Visibility: N/A

Pressure: 30.07 "Hg

Humidity: 50%

Dew point: 27 °F

Location of DavosLocation

Historic Weather in Davos — Graph

°F

Davos temperature yesterday

Maximum temperature yesterday: 40 °F (at 3:00 PM)
Minimum temperature yesterday: 31 °F (at 2:00 AM)
Average temperature yesterday: 36 °F

Past Weeks' High & Low Weather Summary

 TemperatureHumidityPressure
High55 °F (Feb 16, 3:00 PM)94% (Feb 15, 9:00 AM)30.73 "Hg (Feb 15, 9:00 AM)
Low25 °F (Feb 19, 5:00 AM)19% (Feb 20, 2:00 PM)29.47 "Hg (Feb 21, 2:00 PM)
Average37 °F66%30.07 "Hg
* Reported Feb 13 3:00 PM — Feb 28 2:00 PM, Davos, Weather by CustomWeather, © 2015

Note: Actual official high and low records may vary slightly from our data, if they occured in-between our weather recording intervals... More about our weather records

Advertising

Davos weather history for previous 24 hours

 ConditionsComfort  
Time TempWeatherWind HumidityBarometerVisibility
2:00 PM
Sat, Feb 28
43 °FQuite cool.2 mph56%30.10 "HgN/A
1:00 PM40 °FPartly sunny.No wind63%30.14 "Hg12 mi
12:00 PM39 °FChilly.2 mph70%30.17 "HgN/A
11:00 AM38 °FChilly.5 mph77%30.19 "HgN/A
10:00 AM37 °FOvercast.6 mph77%30.20 "Hg9 mi
9:00 AM36 °FChilly.5 mph81%30.21 "HgN/A
8:00 AM36 °FChilly.5 mph82%30.20 "HgN/A
7:00 AM35 °FFog.3 mph85%30.18 "Hg5 mi
6:00 AM36 °FChilly.5 mph85%30.17 "HgN/A
5:00 AM36 °FChilly.5 mph87%30.17 "HgN/A
3:00 AM36 °FChilly.6 mph88%30.18 "HgN/A
2:00 AM36 °FChilly.8 mph86%30.18 "HgN/A
1:00 AM36 °FOvercast.8 mph85%30.18 "Hg5 mi
12:00 AM37 °FChilly.8 mph84%30.17 "HgN/A
11:00 PM
Fri, Feb 27
37 °FChilly.8 mph80%30.16 "HgN/A
9:00 PM39 °FChilly.12 mph73%30.11 "HgN/A
8:00 PM40 °FChilly.12 mph67%30.08 "HgN/A
7:00 PM40 °FFog.12 mph71%30.06 "Hg6 mi
6:00 PM40 °FChilly.10 mph72%30.03 "HgN/A
5:00 PM38 °FChilly.9 mph82%30.00 "HgN/A
4:00 PM37 °FFog.7 mph88%29.98 "Hg6 mi
3:00 PM40 °FQuite cool.12 mph74%29.94 "HgN/A
Weather by CustomWeather, © 2015

See weather overviewHow to use our weather pages